This demonstration page uses our WeatherBlox Daily Observations layout. Learn more.

Left ArrowRight Arrow

53.62937, 11.41316

Hourly Observations for August 8, 2022

Temp ( °F °C ) Dew Point ( °F °C ) Humidity (%) Winds ( mph kmh ) Pressure ( in mb ) Visibility ( mi km ) Precip ( " mm )
12:20 am 00:20 Mostly Clear 55 13 52 11 88 88 Calm 30.24 1024 30 48 N/A
12:50 am 00:50 Mostly Clear 54 12 52 11 94 94 VRB 1 2 30.24 1024 30 48 N/A
1:20 am 01:20 Mostly Clear 54 12 52 11 94 94 SSE 1 2 30.24 1024 30 48 N/A
1:50 am 01:50 Mostly Cloudy 52 11 52 11 100 100 VRB 1 2 30.24 1024 30 48 N/A
2:20 am 02:20 Cloudy 52 11 52 11 100 100 Calm 30.24 1024 30 48 N/A
2:50 am 02:50 Mostly Cloudy 52 11 52 11 100 100 VRB 2 4 30.24 1024 30 48 N/A
3:20 am 03:20 Mostly Clear 52 11 50 10 94 94 Calm 30.24 1024 30 48 N/A
3:50 am 03:50 Partly Cloudy 52 11 50 10 94 94 VRB 1 2 30.24 1024 30 48 N/A
4:20 am 04:20 Partly Cloudy 52 11 50 10 94 94 Calm 30.24 1024 30 48 N/A
4:50 am 04:50 Partly Cloudy 50 10 48 9 94 94 Calm 30.24 1024 2 3 N/A
5:20 am 05:20 Mostly Cloudy 50 10 50 10 100 100 WSW 1 2 30.24 1024 30 48 N/A
5:50 am 05:50 Mostly Cloudy 52 11 50 10 94 94 Calm 30.24 1024 30 48 N/A
6:20 am 06:20 Mostly Sunny 52 11 50 10 94 94 Calm 30.27 1025 7 11 N/A
6:50 am 06:50 Mostly Sunny 52 11 52 11 100 100 W 2 4 30.27 1025 7 11 N/A
7:20 am 07:20 Mostly Sunny 54 12 54 12 100 100 VRB 1 2 30.27 1025 7 11 N/A
7:50 am 07:50 Mostly Sunny 55 13 54 12 94 94 VRB 1 2 30.27 1025 7 11 N/A
8:20 am 08:20 Mostly Sunny 57 14 54 12 88 88 VRB 1 2 30.27 1025 7 11 N/A
8:50 am 08:50 Mostly Sunny 59 15 54 12 82 82 VRB 1 2 30.27 1025 7 11 N/A
9:20 am 09:20 Mostly Cloudy 63 17 55 13 77 77 VRB 1 2 30.27 1025 30 48 N/A
9:50 am 09:50 Partly Cloudy 64 18 54 12 68 68 VRB 3 6 30.27 1025 30 48 N/A
10:20 am 10:20 Mostly Sunny 68 20 55 13 64 64 VRB 2 4 30.27 1025 30 48 N/A
10:50 am 10:50 Mostly Sunny 68 20 52 11 56 56 W 5 7 30.30 1026 30 48 N/A
11:20 am 11:20 Partly Cloudy 72 22 54 12 53 53 VRB 3 6 30.30 1026 30 48 N/A
11:50 am 11:50 Mostly Sunny 70 21 52 11 53 53 NW 7 11 30.30 1026 30 48 N/A
12:20 pm 12:20 Mostly Sunny 72 22 52 11 50 50 WNW 6 9 30.30 1026 7 11 N/A
12:50 pm 12:50 Partly Cloudy 70 21 54 12 57 57 WNW 7 11 30.30 1026 30 48 N/A
1:20 pm 13:20 Mostly Sunny 70 21 52 11 53 53 WNW 7 11 30.30 1026 30 48 N/A
1:50 pm 13:50 Mostly Sunny 70 21 52 11 53 53 WNW 6 9 30.30 1026 7 11 N/A
2:20 pm 14:20 Mostly Sunny 72 22 54 12 53 53 NNW 5 7 30.30 1026 7 11 N/A
2:50 pm 14:50 Mostly Sunny 73 23 54 12 50 50 VRB 3 6 30.30 1026 30 48 N/A
3:20 pm 15:20 Partly Cloudy 72 22 52 11 50 50 VRB 5 7 30.27 1025 30 48 N/A
3:50 pm 15:50 Partly Cloudy 72 22 54 12 53 53 NNE 8 13 30.27 1025 30 48 N/A
4:20 pm 16:20 Mostly Sunny 70 21 54 12 57 57 NNE 7 11 30.30 1026 7 11 N/A
4:50 pm 16:50 Mostly Sunny 70 21 54 12 57 57 NE 7 11 30.30 1026 7 11 N/A
5:20 pm 17:20 Mostly Sunny 72 22 54 12 53 53 NNW 6 9 30.27 1025 7 11 0.00 0.00
5:50 pm 17:50 Mostly Sunny 70 21 54 12 56 56 VRB 3 6 30.26 1025 6 10 0.00 0.00
6:20 pm 18:20 Mostly Sunny 72 22 54 12 53 53 VRB 2 4 30.26 1025 6 10 0.00 0.00
6:50 pm 18:50 Mostly Sunny 72 22 54 12 53 53 NNW 5 7 30.26 1025 6 10 0.00 0.00
7:20 pm 19:20 Mostly Sunny 70 21 54 12 56 56 NNW 5 7 30.26 1025 6 10 0.00 0.00
7:50 pm 19:50 Mostly Sunny 70 21 54 12 56 56 NNE 6 9 30.29 1026 6 10 0.00 0.00
8:20 pm 20:20 Mostly Sunny 68 20 54 12 60 60 VRB 2 4 30.29 1026 6 10 0.00 0.00
8:50 pm 20:50 Mostly Sunny 68 20 54 12 60 60 VRB 2 4 30.29 1026 6 10 0.00 0.00
9:20 pm 21:20 Cloudy 66 19 55 13 68 68 Calm 30.29 1026 6 10 0.00 0.00
9:50 pm 21:50 Mostly Cloudy 64 18 55 13 73 73 E 1 2 30.29 1026 6 10 0.00 0.00
10:20 pm 22:20 Mostly Cloudy 63 17 55 13 77 77 Calm 30.32 1027 6 10 0.00 0.00
10:50 pm 22:50 Mostly Cloudy 63 17 55 13 77 77 Calm 30.32 1027 6 10 0.00 0.00
11:20 pm 23:20 Mostly Clear 61 16 55 13 82 82 Calm 30.32 1027 6 10 0.00 0.00
11:50 pm 23:50 Clear 59 15 55 13 88 88 Calm 30.32 1027 6 10 0.00 0.00

Powered by AerisWeather